Voltar ao catálogo

FENGYUN 1C DEB

AtivoPO
NORAD 30676·DEBRIS·🇨🇳 China

Lançado May 10, 1999 de Taiyuan Satellite Launch Center

Loading…

Próximas Passagens (próximas 24 horas)

TLE

AtualizadoSource: Space-Track

Época: Sep 14, 2026, 05:03 UTC

1 30676U 99025AQJ 26257.21087484  .00000606  00000-0  30248-3 0  9995
2 30676  98.2916  52.6074 0468122  20.4946 341.4319 13.74983126977081

Acompanhe FENGYUN 1C DEB em tempo real com AllMySat

Download on the App Store